Regional Weather Roundup
Issued by NWS

Home | Current Version | Previous Version | Text Only | Print | Product List | Glossary Off
Versions: 1 2 3 4 5 6 7 8 9 10 11 12 13 14 15 16 17 18 19 20 21 22 23 24 25 26 27 28 29 30 31 32 33 34 35 36 37 38 39 40 41 42 43 44 45 46 47 48 49 50

000
ASUS43 KFSD 200002
RWRSD

WEATHER ROUNDUP FOR SOUTH DAKOTA
NATIONAL WEATHER SERVICE SIOUX FALLS SD
700 PM CDT SAT APR 19 2014

NOTE: "FAIR" INDICATES FEW OR NO CLOUDS BELOW 12,000 FEET WITH NO
SIGNIFICANT WEATHER AND/OR OBSTRUCTIONS TO VISIBILITY.


SDZ001>005-009-010-012>017-200100-
NORTHWEST AND NORTH CENTRAL SOUTH DAKOTA

CITY           SKY/WX    TMP DP  RH WIND       PRES   REMARKS
FAITH            N/A     64  25  22 SW8       29.98R
MOBRIDGE       SUNNY     67  25  20 W12       29.93S
$$

SDZ012>016-024>037-041>051-057-063-072>074-200100-
SOUTHWEST AND SOUTH CENTRAL SOUTH DAKOTA

CITY           SKY/WX    TMP DP  RH WIND       PRES   REMARKS
RAPID CTY ARPT MOSUNNY   63  34  33 SE16      29.98S
PIERRE         PTSUNNY   67  21  17 VRB3      29.98R
CUSTER         MOSUNNY   53  31  42 VRB6G17   30.02R
ELLSWORTH AFB  MOSUNNY   62  36  37 S13       29.97S
PHILIP         PTSUNNY   65  25  22 S9        29.99S
PINE RIDGE     PTSUNNY   64  28  25 SE10      30.00S
WINNER         FAIR      69  21  16 CALM      30.01S
$$

SDZ004>011-016>023-039-040-200100-
NORTHEAST SOUTH DAKOTA

CITY           SKY/WX    TMP DP  RH WIND       PRES   REMARKS
ABERDEEN       MOSUNNY   68  24  19 SW13      29.95S
WATERTOWN      PTSUNNY   66  23  19 W8        29.98S
SISSETON         N/A     67  29  24 NW10      29.94S
$$

SDZ017-020-022-023-036>040-048>070-200100-
SOUTHEAST SOUTH DAKOTA

CITY           SKY/WX    TMP DP  RH WIND       PRES   REMARKS
SIOUX FALLS    CLOUDY    66  32  28 N7        29.98S
HURON          PTSUNNY   66  25  21 SW5       29.98S
CHAMBERLAIN      N/A     68  22  17 NE5       30.01R
MITCHELL       MOSUNNY   68  23  18 CALM      30.00S
YANKTON        MOSUNNY   68  41  37 N6        29.98S
$$

ABBREVIATIONS USED IN REMARKS
   TC - TEMPERATURE IN CELSIUS
  WCI - WIND CHILL INDEX
   HX - HEAT INDEX
  VSB - VISIBILITY




USA.gov is the U.S. government's official web portal to all federal, state and local government web resources and services.